Orbital Elements at Epoch 2458262.5 (2018-May-24.0) TDB
Reference: JPL 22 (heliocentric ecliptic J2000)
Element | Value | Uncertainty (1-sigma) | Units |
e | .859286285876197 | 2.1965e-08 | |
a | 11.28891421895193 | 2.7664e-08 | au |
q | 1.588505048173736 | 2.4538e-07 | au |
i | 18.3529465228447 | 6.7826e-06 | deg |
node | 78.00036419278668 | 1.5579e-05 | deg |
peri | 359.5886765534911 | 2.6576e-05 | deg |
M | 355.5568622320152 | 1.0604e-06 | deg |
tp | 2458433.487343535866 (2018-Nov-10.98734354) | 4.0417e-05 | TDB |
period | 13854.04794702775 37.93 | 5.0925e-05 1.394e-07 | d yr |
n | .02598518507922694 | 9.5518e-11 | deg/d |
Q | 20.98932338973012 | 5.1436e-08 | au |
|
Additional Model Parameters
Parameter | Value | Uncertainty (1-sigma) |
A2 [EST] | -2.68703931765036E-11 | 2.055E-13 |
|
| | Orbit Determination Parameters
Additional Information
|